Regional Weather Roundup
Issued by NWS Newport/Morehead, NC

Home | Current Version | Previous Version | Text Only | Print | Product List | Glossary On
Versions: 1 2 3 4 5 6 7 8 9 10 11 12 13 14 15 16 17 18 19 20 21 22 23 24 25 26 27 28 29 30 31 32 33 34 35 36 37 38 39 40 41 42 43 44 45 46 47 48 49 50
000
ASUS42 KMHX 261425
RWRMHX
WEATHER ROUNDUP FOR EASTERN NORTH CAROLINA
NATIONAL WEATHER SERVICE NEWPORT/MOREHEAD CITY NC
900 AM EST SUN FEB 26 2017

NOTE: "FAIR" INDICATES FEW OR NO CLOUDS BELOW 12,000 FEET
WITH NO SIGNIFICANT WEATHER AND/OR OBSTRUCTIONS TO VISIBILITY

NCZ015>017-031-032-045>047-102-103-261500-
NORTH COAST

CITY           SKY/WX    TMP DP  RH WIND       PRES   REMARKS
EDENTON        SUNNY     47  26  42 N15G21    30.15R
ELIZABETH CITY SUNNY     47  26  44 NW8       30.13R
KITTY HAWK     NOT AVBL
MANTEO         SUNNY     48  32  53 N7        30.12R

$$

NCZ045>047-081-094-103-104-261500-
CENTRAL COAST

CITY           SKY/WX    TMP DP  RH WIND       PRES   REMARKS
FRISCO         SUNNY     51  31  46 NW8G18    30.11R

$$

NCZ095-097-098-100-101-261500-
SOUTHERN COAST

CITY           SKY/WX    TMP DP  RH WIND       PRES   REMARKS
BEAUFORT       SUNNY     50  27  40 N15       30.14R
CEDAR ISLAND   NOT AVBL
JACKSONVILLE   SUNNY     48  22  35 N13       30.15R
PINEY ISLAND   SUNNY    N/A N/A N/A NW16      30.13R
WILMINGTON     SUNNY     49  23  36 N12       30.16R


$$

NCZ011>013-027>030-043-044-078>080-089-090>093-098-261500-
COASTAL PLAIN

CITY           SKY/WX    TMP DP  RH WIND       PRES   REMARKS
AHOSKIE          N/A     42  22  45 NW5       30.17R
CLINTON        SUNNY     46  23  41 NW9       30.19R
ELIZABETHTOWN  SUNNY     47  22  36 N8        30.19R
GOLDSBORO      SUNNY     44  18  34 NW14      30.16R
GREENVILLE     SUNNY     45  21  39 N9        30.19R
HAVELOCK       SUNNY     48  23  37 NW14      30.13S
KENANSVILLE    SUNNY     46  21  36 NW10      30.19R
KINSTON        SUNNY     46  21  36 NW8       30.17R
NEW BERN       SUNNY     47  24  40 NW10      30.16R
RICHLANDS      SUNNY     47  21  35 NW8G16    30.17R
ROCKY MOUNT    SUNNY     43  21  41 NW16      30.17R
WASHINGTON     SUNNY     45  24  43 NW10      30.17R
WHITEVILLE     SUNNY     48  20  32 N5        30.19R

$$

AMZ130-135-150-152-154-156-158-170-250-252-270-ANZ085-086-088-633-658-670-261500-
MARINE OBSERVATIONS

STATION/POSITION TIME  TEMP    WIND        PRES    WAVE   SWELL
                       AIR SEA DIR/SP/G            HT/PER HT/PER
                 (UTC) (F)     (DEG/KT/KT) (MB)    (FT/S) (FT/S)
CHESAPEAKE LIGHT NOT AVBL
64 E VA BEACH    1350   45 51  330/ 16/ 19 1018.4    6/10   3/10
DUCK             1400   45 48  340/ 13/ 17 1019.1
2 E DUCK         1400      49                N/A     5/10   2/11
OREGON INLET     1400   47 60  360/ 12/ 16 1019.6
13E OREGON INLT  NOT AVBL
HATTERAS CG      1400   48 63  320/ 17/ 20 1019.4
DIAMOND BUOY     1350   52 72  340/ 17/ 21 1019.1    6/10   3/10
CAPE LOOKOUT     1400   48     340/ 13/ 15 1020.0
BEAUFORT LAB     1400   48 63  360/ 13/ 16 1019.7
30 SE NEW RVR IN 1408   51     360/ 17/ 21 1020.6
30 SE NEW RVR IN 1413      65                N/A     5/10   2/11
27 SE WRIGHTSVLE 1408   51 62  350/ 16/ 21 1020.5
5 SE WRIGHTSVLE  1408   49 58  350/ 12/ 21 1021.2
225 S CAPE HAT   1350   70 71  310/ 14/ 17 1017.9    8/ 7   7/ 7
41 SE CHARLESTON 1350   57 69  350/ 12/ 16 1021.1    5/ 5   3/10

$$



USA.gov is the U.S. government's official web portal to all federal, state and local government web resources and services.